Location: Bailleul
(50.3375°N, 2.8513°E)
Time: 17:04:09
(UTC+00:00)

Cosmos 2084 Rocket - Pass Details

Date: 19 April 2021
Orbit: 525 x 655 km, 62.8° (Epoch: 07 May)

Event Time Altitude Azimuth Distance (km) Brightness Sun altitude
Exits shadow 22:16:48 56° 306° (NW) 644 3.8 -25.1°
Maximum altitude 22:16:59 57° 319° (NW) 640 3.8 -25.1°
Drops below altitude 10° 22:21:02 10° 39° (NE) 1,832 6.3 -25.3°
Sets 22:23:19 0° 44° (NE) 2,749 7.2 -25.5°
